Chester, CT

12:46 PM EST on December 12, 2019 (GMT -0500)
Chester

Weather History for KSNC - August, 2019

Change the Weather History Date:

Wednesday, August 7, 2019

  Actual Average (WUND) Record (WUND)
Temperature  
Mean Temperature 76 °F -  
Max Temperature 84 °F - - (-1)
Min Temperature 68 °F - - (-1)
Cooling Degree Days 11    
Growing Degree Days 26 (Base 50)    
Moisture  
Dew Point 70 °F    
Average Humidity 87    
Maximum Humidity 100    
Minimum Humidity 58    
Precipitation  
Precipitation 0.00 in - - ()
Sea Level Pressure  
Sea Level Pressure 29.84 in    
Wind  
Wind Speed 5 mph (South)    
Max Wind Speed 15 mph    
Max Gust Speed 22 mph    
Visibility 8 miles    
Events Fog , Rain    
Averages and records for this station are not official NWS values.
T = Trace of Precipitation, MM = Missing Value Source: NWS Daily Summary

Daily Weather History Graph

Daily Weather History Graph

Search for Another Location

Airport or City:

Astronomy

Aug. 07, 2019 Rise Set
Actual Time 5:50 AM EDT 8:00 PM EDT
Civil Twilight 5:20 AM EDT 8:30 PM EDT
Nautical Twilight 4:42 AM EDT 9:08 PM EDT
Astronomical Twilight 4:01 AM EDT 9:49 PM EDT
Moon 1:24 PM EDT (8/7) No Moon Set
Length of Visible Light 15h 10m
Length of Day
14h 09m
Waxing Crescent, 49% of the Moon is Illuminated
Aug 7
Waxing Crescent
Aug 7
First Quarter
Aug 15
Full
Aug 23
Last Quarter
Aug 30
New

Hourly Weather History & Observations

Time (EDT) Temp. Heat Index Dew Point Humidity Pressure Visibility Wind Dir Wind Speed Gust Speed Precip Events Conditions
12:15 AM 68.0 °F - 68.0 °F 100% 29.86 in 0.2 mi Calm Calm - N/A Fog Fog
12:35 AM 68.0 °F - 68.0 °F 100% 29.87 in 0.2 mi Calm Calm - N/A Fog Fog
1:15 AM 68.0 °F - 68.0 °F 100% 29.86 in 7.0 mi South 4.6 mph - N/A   Partly Cloudy
1:35 AM 69.8 °F - 69.8 °F 100% 29.86 in 6.0 mi South 4.6 mph - N/A   Clear
1:55 AM 69.8 °F - 69.8 °F 100% 29.86 in 7.0 mi South 4.6 mph - N/A   Clear
2:15 AM 69.8 °F - 69.8 °F 100% 29.87 in 7.0 mi Calm Calm - N/A   Clear
2:35 AM 69.8 °F - 69.8 °F 100% 29.87 in 7.0 mi SSW 3.5 mph - N/A   Clear
2:55 AM 69.8 °F - 69.8 °F 100% 29.86 in 8.0 mi SSW 3.5 mph - N/A   Clear
3:15 AM 69.8 °F - 69.8 °F 100% 29.86 in 8.0 mi South 3.5 mph - N/A   Mostly Cloudy
3:35 AM 69.8 °F - 69.8 °F 100% 29.86 in 7.0 mi South 5.8 mph - N/A   Scattered Clouds
3:55 AM 69.8 °F - 69.8 °F 100% 29.86 in 7.0 mi South 5.8 mph - N/A   Clear
4:15 AM 69.8 °F - 69.8 °F 100% 29.86 in 7.0 mi South 5.8 mph - N/A   Mostly Cloudy
4:35 AM 69.8 °F - 69.8 °F 100% 29.86 in 7.0 mi South 5.8 mph - N/A   Mostly Cloudy
4:55 AM 69.8 °F - 69.8 °F 100% 29.86 in 7.0 mi South 5.8 mph - N/A   Mostly Cloudy
5:15 AM 69.8 °F - 69.8 °F 100% 29.86 in 7.0 mi South 3.5 mph - N/A   Scattered Clouds
5:35 AM 69.8 °F - 69.8 °F 100% 29.87 in 7.0 mi South 4.6 mph - N/A   Scattered Clouds
5:55 AM 69.8 °F - 69.8 °F 100% 29.87 in 6.0 mi SSE 3.5 mph - N/A   Mostly Cloudy
6:15 AM 69.8 °F - 69.8 °F 100% 29.87 in 6.0 mi SSE 5.8 mph - N/A   Overcast
6:35 AM 71.6 °F - 71.6 °F 100% 29.88 in 6.0 mi South 4.6 mph - N/A   Overcast
6:55 AM 71.6 °F - 71.6 °F 100% 29.88 in 8.0 mi South 4.6 mph - N/A   Overcast
7:15 AM 71.6 °F - 71.6 °F 100% 29.88 in 7.0 mi SSE 4.6 mph - N/A   Overcast
7:35 AM 71.6 °F - 71.6 °F 100% 29.87 in 6.0 mi SSE 3.5 mph - N/A   Overcast
7:55 AM 73.4 °F - 73.4 °F 100% 29.88 in 6.0 mi SSE 5.8 mph - N/A   Overcast
8:15 AM 75.2 °F - 73.4 °F 94% 29.88 in 5.0 mi South 5.8 mph - N/A   Overcast
8:55 AM 78.8 °F - 73.4 °F 83% 29.88 in 9.0 mi South 10.4 mph - N/A   Overcast
9:15 AM 77.0 °F - 73.4 °F 89% 29.88 in 9.0 mi SSW 6.9 mph - N/A   Mostly Cloudy
9:35 AM 77.0 °F - 73.4 °F 89% 29.88 in 9.0 mi South 8.1 mph - N/A   Overcast
9:55 AM 77.0 °F - 73.4 °F 89% 29.88 in 9.0 mi South 9.2 mph - N/A   Overcast
10:15 AM 77.0 °F - 73.4 °F 89% 29.87 in 8.0 mi South 6.9 mph - N/A   Overcast
10:35 AM 78.8 °F - 75.2 °F 89% 29.87 in 9.0 mi South 5.8 mph - N/A   Overcast
10:55 AM 78.8 °F - 75.2 °F 89% 29.87 in 9.0 mi South 11.5 mph - N/A   Overcast
11:15 AM 80.6 °F 85.4 °F 73.4 °F 79% 29.88 in 9.0 mi South 6.9 mph 13.8 mph N/A   Mostly Cloudy
11:35 AM 82.4 °F 87.2 °F 71.6 °F 70% 29.87 in 10.0 mi SSW 10.4 mph 18.4 mph N/A   Scattered Clouds
11:55 AM 84.2 °F 88.4 °F 69.8 °F 62% 29.87 in 10.0 mi South 11.5 mph - N/A   Scattered Clouds
12:15 PM 82.4 °F 86.3 °F 69.8 °F 66% 29.87 in 9.0 mi SSW 11.5 mph 17.3 mph N/A   Partly Cloudy
12:35 PM 82.4 °F 85.4 °F 68.0 °F 62% 29.87 in 10.0 mi South 8.1 mph 19.6 mph N/A   Clear
12:55 PM 84.2 °F 87.3 °F 68.0 °F 58% 29.87 in 10.0 mi South 13.8 mph 20.7 mph N/A   Clear
1:15 PM 84.2 °F 87.3 °F 68.0 °F 58% 29.86 in 9.0 mi South 13.8 mph 20.7 mph N/A   Clear
1:35 PM 84.2 °F 88.4 °F 69.8 °F 62% 29.85 in 10.0 mi SSW 10.4 mph 21.9 mph N/A   Partly Cloudy
1:55 PM 84.2 °F 88.4 °F 69.8 °F 62% 29.84 in 10.0 mi SSW 9.2 mph 18.4 mph N/A   Partly Cloudy
2:15 PM 84.2 °F 87.3 °F 68.0 °F 58% 29.83 in 9.0 mi South 13.8 mph 21.9 mph N/A   Clear
2:35 PM 84.2 °F 87.3 °F 68.0 °F 58% 29.82 in 10.0 mi South 15.0 mph 20.7 mph N/A   Clear
2:55 PM 84.2 °F 88.4 °F 69.8 °F 62% 29.82 in 10.0 mi South 10.4 mph - N/A   Partly Cloudy
3:15 PM 84.2 °F 87.3 °F 68.0 °F 58% 29.83 in 10.0 mi South 10.4 mph - N/A   Mostly Cloudy
3:35 PM 84.2 °F 87.3 °F 68.0 °F 58% 29.83 in 10.0 mi South 12.7 mph - N/A   Scattered Clouds
3:55 PM 82.4 °F 86.3 °F 69.8 °F 66% 29.83 in 10.0 mi South 10.4 mph 16.1 mph N/A   Scattered Clouds
4:15 PM 80.6 °F 83.9 °F 69.8 °F 70% 29.82 in 10.0 mi South 6.9 mph - N/A   Mostly Cloudy
4:35 PM 80.6 °F 83.9 °F 69.8 °F 70% 29.81 in 10.0 mi SSE 6.9 mph - N/A   Mostly Cloudy
4:55 PM 78.8 °F - 69.8 °F 74% 29.81 in 10.0 mi SE 5.8 mph - N/A   Overcast
5:15 PM 78.8 °F - 69.8 °F 74% 29.81 in 10.0 mi SSE 6.9 mph - N/A   Mostly Cloudy
5:35 PM 77.0 °F - 69.8 °F 78% 29.81 in 10.0 mi SSE 6.9 mph - N/A   Mostly Cloudy
5:55 PM 77.0 °F - 69.8 °F 78% 29.82 in 10.0 mi SSE 6.9 mph - N/A   Overcast
6:15 PM 77.0 °F - 68.0 °F 74% 29.81 in 10.0 mi South 8.1 mph - N/A   Mostly Cloudy
6:35 PM 73.4 °F - 69.8 °F 88% 29.80 in 9.0 mi Calm Calm - N/A   Overcast
6:55 PM 73.4 °F - 71.6 °F 94% 29.80 in 9.0 mi SSE 4.6 mph - N/A   Overcast
7:15 PM 75.2 °F - 73.4 °F 94% 29.80 in 9.0 mi South 11.5 mph - N/A   Overcast
7:35 PM 75.2 °F - 73.4 °F 94% 29.80 in 9.0 mi South 8.1 mph 16.1 mph N/A   Overcast
7:55 PM 75.2 °F - 73.4 °F 94% 29.80 in 9.0 mi South 9.2 mph 19.6 mph N/A   Overcast
8:15 PM 75.2 °F - 73.4 °F 94% 29.80 in 10.0 mi South 9.2 mph 17.3 mph N/A   Overcast
8:35 PM 77.0 °F - 73.4 °F 89% 29.79 in 10.0 mi South 13.8 mph 19.6 mph N/A   Overcast
8:55 PM 73.4 °F - 69.8 °F 88% 29.82 in 7.0 mi WSW 9.2 mph 17.3 mph N/A Rain Light Rain
9:15 PM 69.8 °F - 68.0 °F 94% 29.82 in 7.0 mi WSW 10.4 mph - N/A Rain Light Rain
9:35 PM 69.8 °F - 69.8 °F 100% 29.82 in 7.0 mi Variable 6.9 mph - N/A Rain Light Rain
9:55 PM 69.8 °F - 69.8 °F 100% 29.80 in 5.0 mi Variable 6.9 mph - N/A   Light Drizzle
10:15 PM 69.8 °F - 69.8 °F 100% 29.80 in 8.0 mi Calm Calm - N/A   Scattered Clouds
10:35 PM 69.8 °F - 69.8 °F 100% 29.79 in 9.0 mi Calm Calm - N/A   Clear
10:55 PM 69.8 °F - 69.8 °F 100% 29.79 in 8.0 mi Calm Calm - N/A   Light Drizzle
11:15 PM 69.8 °F - 69.8 °F 100% 29.79 in 3.0 mi Calm Calm - N/A Rain Light Rain
11:35 PM 69.8 °F - 69.8 °F 100% 29.78 in 4.0 mi Calm Calm - N/A Rain Light Rain
11:55 PM 69.8 °F - 69.8 °F 100% 29.77 in 7.0 mi SSW 5.8 mph - N/A Rain Light Rain